Location: Waco, TX
(31.5480°N, 97.1670°W)
Time: 22:58:02
(UTC-05:00)

ISS - Pass Details

Date: 25 April 2018
Orbit: 403 x 406 km, 51.6° (Epoch: 23 April)

Event Time Altitude Azimuth Distance (km) Brightness Sun altitude
Rises 07:59:11 0° 229° (SW) 2,301 -0.5 13.7°
Reaches altitude 10° 08:01:16 10° 232° (SW) 1,446 -1.5 14.2°
Maximum altitude 08:04:29 68° 316° (NW) 436 -3.6 14.9°
Drops below altitude 10° 08:07:44 10° 40° (NE) 1,454 -0.2 15.6°
Sets 08:09:49 0° 43° (NE) 2,317 0.8 16.0°
